owner,sensor,date,latitude,longitude,air_temperature,qcFlag 
TABS,ioos:station:wmo:42047:1,2003-03-01T00:39:00Z,27.8966,-93.5973,19.1,11144222 
TABS,ioos:station:wmo:42047:1,2003-03-01T02:39:00Z,27.8966,-93.5973,19.6,11144222 
TABS,ioos:station:wmo:42047:1,2003-03-01T03:09:00Z,27.8966,-93.5973,19.9,11144222 
TABS,ioos:station:wmo:42047:1,2003-03-01T04:09:00Z,27.8966,-93.5973,20.1,11144222 
TABS,ioos:station:wmo:42047:1,2003-03-01T04:39:00Z,27.8966,-93.5973,20.2,11144222 
TABS,ioos:station:wmo:42047:1,2003-03-01T05:39:00Z,27.8966,-93.5973,20.5,11144222 
TABS,ioos:station:wmo:42047:1,2003-03-01T08:09:00Z,27.8966,-93.5973,20.7,11144222 
TABS,ioos:station:wmo:42047:1,2003-03-01T09:09:00Z,27.8966,-93.5973,20.7,11144222 
TABS,ioos:station:wmo:42047:1,2003-03-01T12:39:00Z,27.8966,-93.5973,20.1,11144222 
TABS,ioos:station:wmo:42047:1,2003-03-01T13:09:00Z,27.8966,-93.5973,19.9,11144222 
TABS,ioos:station:wmo:42047:1,2003-03-01T18:39:00Z,27.8966,-93.5973,19.6,11144222 
TABS,ioos:station:wmo:42047:1,2003-03-01T19:39:00Z,27.8966,-93.5973,19.4,11144222 
TABS,ioos:station:wmo:42047:1,2003-03-01T20:09:00Z,27.8966,-93.5973,19.5,11144222 
TABS,ioos:station:wmo:42047:1,2003-03-01T22:39:00Z,27.8966,-93.5973,19.3,11144222 
TABS,ioos:station:wmo:42047:1,2003-03-01T23:39:00Z,27.8966,-93.5973,19.5,11144222 
TABS,ioos:station:wmo:42047:1,2003-03-02T01:09:00Z,27.8966,-93.5973,19.9,11144222 
TABS,ioos:station:wmo:42047:1,2003-03-02T02:39:00Z,27.8966,-93.5973,20.5,11144222 
TABS,ioos:station:wmo:42047:1,2003-03-02T04:39:00Z,27.8966,-93.5973,21.1,11144222 
TABS,ioos:station:wmo:42047:1,2003-03-02T07:09:00Z,27.8966,-93.5973,21.5,11144222 
TABS,ioos:station:wmo:42047:1,2003-03-02T07:39:00Z,27.8966,-93.5973,21.6,11144222 
TABS,ioos:station:wmo:42047:1,2003-03-02T09:39:00Z,27.8966,-93.5973,21.7,11144222 
TABS,ioos:station:wmo:42047:1,2003-03-02T12:39:00Z,27.8966,-93.5973,19.7,11144222 
TABS,ioos:station:wmo:42047:1,2003-03-02T13:09:00Z,27.8966,-93.5973,19.7,11144222 
TABS,ioos:station:wmo:42047:1,2003-03-02T14:09:00Z,27.8966,-93.5973,19.9,11144222 
TABS,ioos:station:wmo:42047:1,2003-03-02T18:09:00Z,27.8966,-93.5973,19.3,11144222 
TABS,ioos:station:wmo:42047:1,2003-03-02T20:09:00Z,27.8966,-93.5973,19.2,11144222 
TABS,ioos:station:wmo:42047:1,2003-03-02T22:09:00Z,27.8966,-93.5973,19.0,11144222 
TABS,ioos:station:wmo:42047:1,2003-03-02T23:09:00Z,27.8966,-93.5973,18.6,11144222 
TABS,ioos:station:wmo:42047:1,2003-03-03T07:39:00Z,27.8966,-93.5973,20.3,11144222 
TABS,ioos:station:wmo:42047:1,2003-03-03T08:39:00Z,27.8966,-93.5973,20.4,11144222 
TABS,ioos:station:wmo:42047:1,2003-03-03T09:09:00Z,27.8966,-93.5973,20.5,11144222 
TABS,ioos:station:wmo:42047:1,2003-03-03T09:39:00Z,27.8966,-93.5973,20.6,11144222 
TABS,ioos:station:wmo:42047:1,2003-03-03T10:09:00Z,27.8966,-93.5973,20.6,11144222 
TABS,ioos:station:wmo:42047:1,2003-03-03T10:39:00Z,27.8966,-93.5973,20.6,11144222 
TABS,ioos:station:wmo:42047:1,2003-03-03T11:39:00Z,27.8966,-93.5973,20.6,11144222 
TABS,ioos:station:wmo:42047:1,2003-03-03T15:39:00Z,27.8966,-93.5973,20.8,11144222 
TABS,ioos:station:wmo:42047:1,2003-03-03T18:09:00Z,27.8966,-93.5973,21.7,11144222 
TABS,ioos:station:wmo:42047:1,2003-03-03T19:09:00Z,27.8966,-93.5973,21.9,11144222 
TABS,ioos:station:wmo:42047:1,2003-03-03T19:39:00Z,27.8966,-93.5973,21.8,11144222 
TABS,ioos:station:wmo:42047:1,2003-03-03T21:09:00Z,27.8966,-93.5973,21.4,11144222 
TABS,ioos:station:wmo:42047:1,2003-03-03T22:09:00Z,27.8966,-93.5973,21.2,11144222 
TABS,ioos:station:wmo:42047:1,2003-03-04T03:09:00Z,27.8966,-93.5973,17.0,11144222 
TABS,ioos:station:wmo:42047:1,2003-03-04T04:09:00Z,27.8966,-93.5973,17.6,11144222 
TABS,ioos:station:wmo:42047:1,2003-03-04T08:39:00Z,27.8966,-93.5973,20.2,11144222 
TABS,ioos:station:wmo:42047:1,2003-03-04T09:09:00Z,27.8966,-93.5973,20.5,11144222 
TABS,ioos:station:wmo:42047:1,2003-03-04T10:09:00Z,27.8966,-93.5973,21.1,11144222 
TABS,ioos:station:wmo:42047:1,2003-03-04T11:39:00Z,27.8966,-93.5973,21.5,11144222 
TABS,ioos:station:wmo:42047:1,2003-03-04T13:09:00Z,27.8966,-93.5973,21.8,11144222 
TABS,ioos:station:wmo:42047:1,2003-03-04T16:09:00Z,27.8966,-93.5973,20.8,11144222 
TABS,ioos:station:wmo:42047:1,2003-03-04T19:39:00Z,27.8966,-93.5973,22.4,11144222 
TABS,ioos:station:wmo:42047:1,2003-03-04T20:09:00Z,27.8966,-93.5973,22.6,11144222 
TABS,ioos:station:wmo:42047:1,2003-03-04T20:39:00Z,27.8966,-93.5973,22.9,11144222 
TABS,ioos:station:wmo:42047:1,2003-03-05T00:09:00Z,27.8966,-93.5973,23.0,11144222 
TABS,ioos:station:wmo:42047:1,2003-03-05T01:09:00Z,27.8966,-93.5973,22.9,11144222 
TABS,ioos:station:wmo:42047:1,2003-03-05T02:39:00Z,27.8966,-93.5973,22.9,11144222 
TABS,ioos:station:wmo:42047:1,2003-03-05T04:09:00Z,27.8966,-93.5973,22.7,11144222 
TABS,ioos:station:wmo:42047:1,2003-03-05T05:09:00Z,27.8966,-93.5973,22.8,11144222 
TABS,ioos:station:wmo:42047:1,2003-03-05T06:09:00Z,27.8966,-93.5973,22.8,11144222 
TABS,ioos:station:wmo:42047:1,2003-03-05T06:39:00Z,27.8966,-93.5973,22.8,11144222 
TABS,ioos:station:wmo:42047:1,2003-03-05T07:09:00Z,27.8966,-93.5973,22.8,11144222 
TABS,ioos:station:wmo:42047:1,2003-03-05T08:09:00Z,27.8966,-93.5973,22.9,11144222 
TABS,ioos:station:wmo:42047:1,2003-03-05T09:09:00Z,27.8966,-93.5973,23.1,11144222 
TABS,ioos:station:wmo:42047:1,2003-03-05T11:09:00Z,27.8966,-93.5973,23.1,11144222 
TABS,ioos:station:wmo:42047:1,2003-03-05T15:09:00Z,27.8966,-93.5973,23.1,11144222 
TABS,ioos:station:wmo:42047:1,2003-03-05T16:39:00Z,27.8966,-93.5973,23.3,11144222 
TABS,ioos:station:wmo:42047:1,2003-03-05T18:39:00Z,27.8966,-93.5973,23.6,11144222 
TABS,ioos:station:wmo:42047:1,2003-03-05T20:39:00Z,27.8966,-93.5973,23.8,11144222 
TABS,ioos:station:wmo:42047:1,2003-03-05T21:39:00Z,27.8966,-93.5973,23.9,11144222 
TABS,ioos:station:wmo:42047:1,2003-03-05T23:39:00Z,27.8966,-93.5973,23.6,11144222 
TABS,ioos:station:wmo:42047:1,2003-03-06T00:09:00Z,27.8966,-93.5973,23.6,11144222 
TABS,ioos:station:wmo:42047:1,2003-03-06T00:39:00Z,27.8966,-93.5973,23.6,11144222 
TABS,ioos:station:wmo:42047:1,2003-03-06T04:39:00Z,27.8966,-93.5973,23.7,11144222 
TABS,ioos:station:wmo:42047:1,2003-03-06T05:09:00Z,27.8966,-93.5973,23.6,11144222 
TABS,ioos:station:wmo:42047:1,2003-03-06T07:09:00Z,27.8966,-93.5973,23.5,11144222 
TABS,ioos:station:wmo:42047:1,2003-03-06T07:39:00Z,27.8966,-93.5973,23.5,11144222 
TABS,ioos:station:wmo:42047:1,2003-03-06T08:09:00Z,27.8966,-93.5973,23.5,11144222 
TABS,ioos:station:wmo:42047:1,2003-03-06T08:39:00Z,27.8966,-93.5973,23.5,11144222 
TABS,ioos:station:wmo:42047:1,2003-03-06T09:09:00Z,27.8966,-93.5973,23.5,11144222 
TABS,ioos:station:wmo:42047:1,2003-03-06T09:39:00Z,27.8966,-93.5973,23.5,11144222 
TABS,ioos:station:wmo:42047:1,2003-03-06T13:09:00Z,27.8966,-93.5973,20.6,11144222 
TABS,ioos:station:wmo:42047:1,2003-03-06T13:39:00Z,27.8966,-93.5973,20.7,11144222 
TABS,ioos:station:wmo:42047:1,2003-03-06T15:09:00Z,27.8966,-93.5973,20.7,11144222 
TABS,ioos:station:wmo:42047:1,2003-03-06T20:09:00Z,27.8966,-93.5973,20.0,11144222 
TABS,ioos:station:wmo:42047:1,2003-03-06T22:39:00Z,27.8966,-93.5973,19.6,11144222 
TABS,ioos:station:wmo:42047:1,2003-03-07T04:39:00Z,27.8966,-93.5973,19.8,11144222 
TABS,ioos:station:wmo:42047:1,2003-03-07T05:39:00Z,27.8966,-93.5973,19.4,11144222 
TABS,ioos:station:wmo:42047:1,2003-03-07T12:09:00Z,27.8966,-93.5973,19.6,11144222 
TABS,ioos:station:wmo:42047:1,2003-03-07T19:09:00Z,27.8966,-93.5973,19.4,11144222 
TABS,ioos:station:wmo:42047:1,2003-03-07T22:09:00Z,27.8966,-93.5973,20.4,11144222 
TABS,ioos:station:wmo:42047:1,2003-03-08T00:09:00Z,27.8966,-93.5973,20.3,11144222 
TABS,ioos:station:wmo:42047:1,2003-03-08T00:39:00Z,27.8966,-93.5973,20.4,11144222 
TABS,ioos:station:wmo:42047:1,2003-03-08T01:09:00Z,27.8966,-93.5973,20.5,11144222 
TABS,ioos:station:wmo:42047:1,2003-03-08T03:39:00Z,27.8966,-93.5973,21.5,11144222 
TABS,ioos:station:wmo:42047:1,2003-03-08T04:09:00Z,27.8966,-93.5973,21.5,11144222 
TABS,ioos:station:wmo:42047:1,2003-03-08T05:39:00Z,27.8966,-93.5973,21.8,11144222 
TABS,ioos:station:wmo:42047:1,2003-03-08T06:39:00Z,27.8966,-93.5973,22.1,11144222 
TABS,ioos:station:wmo:42047:1,2003-03-08T09:09:00Z,27.8966,-93.5973,22.1,11144222 
TABS,ioos:station:wmo:42047:1,2003-03-08T10:09:00Z,27.8966,-93.5973,22.1,11144222 
TABS,ioos:station:wmo:42047:1,2003-03-08T10:39:00Z,27.8966,-93.5973,22.1,11144222 
TABS,ioos:station:wmo:42047:1,2003-03-08T12:09:00Z,27.8966,-93.5973,22.3,11144222 
TABS,ioos:station:wmo:42047:1,2003-03-08T12:39:00Z,27.8966,-93.5973,22.3,11144222 
TABS,ioos:station:wmo:42047:1,2003-03-08T13:09:00Z,27.8966,-93.5973,22.2,11144222 
TABS,ioos:station:wmo:42047:1,2003-03-08T13:39:00Z,27.8966,-93.5973,22.2,11144222 
TABS,ioos:station:wmo:42047:1,2003-03-08T16:09:00Z,27.8966,-93.5973,22.0,11144222 
TABS,ioos:station:wmo:42047:1,2003-03-08T17:39:00Z,27.8966,-93.5973,22.4,11144222 
TABS,ioos:station:wmo:42047:1,2003-03-08T19:09:00Z,27.8966,-93.5973,22.6,11144222 
TABS,ioos:station:wmo:42047:1,2003-03-08T19:39:00Z,27.8966,-93.5973,22.4,11144222 
TABS,ioos:station:wmo:42047:1,2003-03-08T20:39:00Z,27.8966,-93.5973,22.2,11144222 
TABS,ioos:station:wmo:42047:1,2003-03-08T21:09:00Z,27.8966,-93.5973,22.2,11144222 
TABS,ioos:station:wmo:42047:1,2003-03-08T21:39:00Z,27.8966,-93.5973,22.3,11144222 
TABS,ioos:station:wmo:42047:1,2003-03-08T22:09:00Z,27.8966,-93.5973,22.3,11144222 
TABS,ioos:station:wmo:42047:1,2003-03-09T00:09:00Z,27.8966,-93.5973,22.0,11144222 
TABS,ioos:station:wmo:42047:1,2003-03-09T02:39:00Z,27.8966,-93.5973,21.9,11144222 
TABS,ioos:station:wmo:42047:1,2003-03-09T03:09:00Z,27.8966,-93.5973,22.0,11144222 
TABS,ioos:station:wmo:42047:1,2003-03-09T04:09:00Z,27.8966,-93.5973,22.0,11144222 
TABS,ioos:station:wmo:42047:1,2003-03-09T05:39:00Z,27.8966,-93.5973,22.0,11144222 
TABS,ioos:station:wmo:42047:1,2003-03-09T06:09:00Z,27.8966,-93.5973,22.0,11144222 
TABS,ioos:station:wmo:42047:1,2003-03-09T07:39:00Z,27.8966,-93.5973,22.0,11144222 
TABS,ioos:station:wmo:42047:1,2003-03-09T08:09:00Z,27.8966,-93.5973,22.0,11144222 
TABS,ioos:station:wmo:42047:1,2003-03-09T09:09:00Z,27.8966,-93.5973,21.9,11144222 
TABS,ioos:station:wmo:42047:1,2003-03-09T09:39:00Z,27.8966,-93.5973,21.8,11144222 
TABS,ioos:station:wmo:42047:1,2003-03-09T10:09:00Z,27.8966,-93.5973,21.6,11144222 
TABS,ioos:station:wmo:42047:1,2003-03-09T10:39:00Z,27.8966,-93.5973,21.5,11144222 
TABS,ioos:station:wmo:42047:1,2003-03-09T11:09:00Z,27.8966,-93.5973,21.6,11144222 
TABS,ioos:station:wmo:42047:1,2003-03-09T11:39:00Z,27.8966,-93.5973,21.6,11144222 
TABS,ioos:station:wmo:42047:1,2003-03-09T12:09:00Z,27.8966,-93.5973,21.7,11144222 
TABS,ioos:station:wmo:42047:1,2003-03-09T13:09:00Z,27.8966,-93.5973,21.3,11144222 
TABS,ioos:station:wmo:42047:1,2003-03-09T18:39:00Z,27.8966,-93.5973,21.7,11144222 
TABS,ioos:station:wmo:42047:1,2003-03-09T19:39:00Z,27.8966,-93.5973,21.6,11144222 
TABS,ioos:station:wmo:42047:1,2003-03-09T20:39:00Z,27.8966,-93.5973,22.0,11144222 
TABS,ioos:station:wmo:42047:1,2003-03-09T21:09:00Z,27.8966,-93.5973,22.2,11144222 
TABS,ioos:station:wmo:42047:1,2003-03-09T21:39:00Z,27.8966,-93.5973,22.3,11144222 
TABS,ioos:station:wmo:42047:1,2003-03-09T22:39:00Z,27.8966,-93.5973,22.3,11144222 
TABS,ioos:station:wmo:42047:1,2003-03-10T03:09:00Z,27.8966,-93.5973,22.1,11144222 
TABS,ioos:station:wmo:42047:1,2003-03-10T04:09:00Z,27.8966,-93.5973,22.2,11144222 
TABS,ioos:station:wmo:42047:1,2003-03-10T06:09:00Z,27.8966,-93.5973,22.2,11144222 
TABS,ioos:station:wmo:42047:1,2003-03-10T08:09:00Z,27.8966,-93.5973,22.1,11144222 
TABS,ioos:station:wmo:42047:1,2003-03-10T09:39:00Z,27.8966,-93.5973,21.9,11144222 
TABS,ioos:station:wmo:42047:1,2003-03-10T10:09:00Z,27.8966,-93.5973,21.9,11144222 
TABS,ioos:station:wmo:42047:1,2003-03-10T10:39:00Z,27.8966,-93.5973,21.8,11144222 
TABS,ioos:station:wmo:42047:1,2003-03-10T13:09:00Z,27.8966,-93.5973,21.4,11144222 
TABS,ioos:station:wmo:42047:1,2003-03-10T14:09:00Z,27.8966,-93.5973,21.6,11144222 
TABS,ioos:station:wmo:42047:1,2003-03-10T17:09:00Z,27.8966,-93.5973,21.9,11144222 
TABS,ioos:station:wmo:42047:1,2003-03-10T17:39:00Z,27.8966,-93.5973,21.9,11144222 
TABS,ioos:station:wmo:42047:1,2003-03-10T19:39:00Z,27.8966,-93.5973,22.7,11144222 
TABS,ioos:station:wmo:42047:1,2003-03-10T20:09:00Z,27.8966,-93.5973,22.8,11144222 
TABS,ioos:station:wmo:42047:1,2003-03-10T21:09:00Z,27.8966,-93.5973,22.9,11144222 
TABS,ioos:station:wmo:42047:1,2003-03-10T22:39:00Z,27.8966,-93.5973,23.4,11144222 
TABS,ioos:station:wmo:42047:1,2003-03-10T23:39:00Z,27.8966,-93.5973,23.2,11144222 
TABS,ioos:station:wmo:42047:1,2003-03-11T00:09:00Z,27.8966,-93.5973,23.1,11144222 
TABS,ioos:station:wmo:42047:1,2003-03-11T01:39:00Z,27.8966,-93.5973,22.9,11144222 
TABS,ioos:station:wmo:42047:1,2003-03-11T02:09:00Z,27.8966,-93.5973,22.8,11144222 
TABS,ioos:station:wmo:42047:1,2003-03-11T04:39:00Z,27.8966,-93.5973,22.3,11144222 
TABS,ioos:station:wmo:42047:1,2003-03-11T05:09:00Z,27.8966,-93.5973,22.3,11144222 
TABS,ioos:station:wmo:42047:1,2003-03-11T05:39:00Z,27.8966,-93.5973,22.4,11144222 
TABS,ioos:station:wmo:42047:1,2003-03-11T07:09:00Z,27.8966,-93.5973,22.4,11144222 
TABS,ioos:station:wmo:42047:1,2003-03-11T08:09:00Z,27.8966,-93.5973,22.3,11144222 
TABS,ioos:station:wmo:42047:1,2003-03-11T08:39:00Z,27.8966,-93.5973,22.2,11144222 
TABS,ioos:station:wmo:42047:1,2003-03-11T09:09:00Z,27.8966,-93.5973,22.1,11144222 
TABS,ioos:station:wmo:42047:1,2003-03-11T09:39:00Z,27.8966,-93.5973,22.2,11144222 
TABS,ioos:station:wmo:42047:1,2003-03-11T12:09:00Z,27.8966,-93.5973,22.3,11144222 
TABS,ioos:station:wmo:42047:1,2003-03-11T13:09:00Z,27.8966,-93.5973,22.4,11144222 
TABS,ioos:station:wmo:42047:1,2003-03-11T15:39:00Z,27.8966,-93.5973,23.1,11144222 
TABS,ioos:station:wmo:42047:1,2003-03-11T16:09:00Z,27.8966,-93.5973,23.2,11144222 
TABS,ioos:station:wmo:42047:1,2003-03-11T16:39:00Z,27.8966,-93.5973,23.2,11144222 
TABS,ioos:station:wmo:42047:1,2003-03-11T17:09:00Z,27.8966,-93.5973,23.3,11144222 
TABS,ioos:station:wmo:42047:1,2003-03-11T19:39:00Z,27.8966,-93.5973,23.2,11144222 
TABS,ioos:station:wmo:42047:1,2003-03-11T21:39:00Z,27.8966,-93.5973,23.3,11144222 
TABS,ioos:station:wmo:42047:1,2003-03-11T22:39:00Z,27.8966,-93.5973,23.2,11144222 
TABS,ioos:station:wmo:42047:1,2003-03-11T23:09:00Z,27.8966,-93.5973,23.2,11144222 
TABS,ioos:station:wmo:42047:1,2003-03-12T00:39:00Z,27.8966,-93.5973,23.3,11144222 
TABS,ioos:station:wmo:42047:1,2003-03-12T03:39:00Z,27.8966,-93.5973,23.4,11144222 
TABS,ioos:station:wmo:42047:1,2003-03-12T04:09:00Z,27.8966,-93.5973,23.3,11144222 
TABS,ioos:station:wmo:42047:1,2003-03-12T05:09:00Z,27.8966,-93.5973,23.4,11144222 
TABS,ioos:station:wmo:42047:1,2003-03-12T09:09:00Z,27.8966,-93.5973,23.3,11144222 
TABS,ioos:station:wmo:42047:1,2003-03-12T09:39:00Z,27.8966,-93.5973,23.2,11144222 
TABS,ioos:station:wmo:42047:1,2003-03-12T10:09:00Z,27.8966,-93.5973,23.2,11144222 
TABS,ioos:station:wmo:42047:1,2003-03-12T14:09:00Z,27.8966,-93.5973,23.8,11144222 
TABS,ioos:station:wmo:42047:1,2003-03-12T16:39:00Z,27.8966,-93.5973,23.9,11144222 
TABS,ioos:station:wmo:42047:1,2003-03-12T17:09:00Z,27.8966,-93.5973,24.0,11144222 
TABS,ioos:station:wmo:42047:1,2003-03-12T17:39:00Z,27.8966,-93.5973,23.9,11144222 
TABS,ioos:station:wmo:42047:1,2003-03-12T19:39:00Z,27.8966,-93.5973,24.1,11144222 
TABS,ioos:station:wmo:42047:1,2003-03-12T20:09:00Z,27.8966,-93.5973,24.4,11144222 
TABS,ioos:station:wmo:42047:1,2003-03-12T20:39:00Z,27.8966,-93.5973,24.4,11144222 
TABS,ioos:station:wmo:42047:1,2003-03-12T21:39:00Z,27.8966,-93.5973,24.3,11144222 
TABS,ioos:station:wmo:42047:1,2003-03-12T22:39:00Z,27.8966,-93.5973,24.5,11144222 
TABS,ioos:station:wmo:42047:1,2003-03-12T23:39:00Z,27.8966,-93.5973,24.5,11144222 
TABS,ioos:station:wmo:42047:1,2003-03-13T00:39:00Z,27.8966,-93.5973,24.7,11144222 
TABS,ioos:station:wmo:42047:1,2003-03-13T01:09:00Z,27.8966,-93.5973,24.6,11144222 
TABS,ioos:station:wmo:42047:1,2003-03-13T01:39:00Z,27.8966,-93.5973,24.6,11144222 
TABS,ioos:station:wmo:42047:1,2003-03-13T02:39:00Z,27.8966,-93.5973,24.6,11144222 
TABS,ioos:station:wmo:42047:1,2003-03-13T04:39:00Z,27.8966,-93.5973,24.5,11144222 
TABS,ioos:station:wmo:42047:1,2003-03-13T06:09:00Z,27.8966,-93.5973,24.4,11144222 
TABS,ioos:station:wmo:42047:1,2003-03-13T06:39:00Z,27.8966,-93.5973,24.3,11144222 
TABS,ioos:station:wmo:42047:1,2003-03-13T08:39:00Z,27.8966,-93.5973,24.3,11144222 
TABS,ioos:station:wmo:42047:1,2003-03-13T09:09:00Z,27.8966,-93.5973,24.3,11144222 
TABS,ioos:station:wmo:42047:1,2003-03-13T16:09:00Z,27.8966,-93.5973,24.6,11144222 
TABS,ioos:station:wmo:42047:1,2003-03-13T18:39:00Z,27.8966,-93.5973,25.3,11144222 
TABS,ioos:station:wmo:42047:1,2003-03-13T19:39:00Z,27.8966,-93.5973,25.3,11144222 
TABS,ioos:station:wmo:42047:1,2003-03-13T21:09:00Z,27.8966,-93.5973,25.4,11144222 
TABS,ioos:station:wmo:42047:1,2003-03-13T22:09:00Z,27.8966,-93.5973,25.3,11144222 
TABS,ioos:station:wmo:42047:1,2003-03-13T22:39:00Z,27.8966,-93.5973,25.3,11144222 
TABS,ioos:station:wmo:42047:1,2003-03-13T23:09:00Z,27.8966,-93.5973,24.5,11144222 
TABS,ioos:station:wmo:42047:1,2003-03-14T00:09:00Z,27.8966,-93.5973,24.0,11144222 
TABS,ioos:station:wmo:42047:1,2003-03-14T02:09:00Z,27.8966,-93.5973,23.0,11144222 
TABS,ioos:station:wmo:42047:1,2003-03-14T04:39:00Z,27.8966,-93.5973,23.4,11144222 
TABS,ioos:station:wmo:42047:1,2003-03-14T05:09:00Z,27.8966,-93.5973,23.4,11144222 
TABS,ioos:station:wmo:42047:1,2003-03-14T05:39:00Z,27.8966,-93.5973,23.6,11144222 
TABS,ioos:station:wmo:42047:1,2003-03-14T06:09:00Z,27.8966,-93.5973,23.5,11144222 
TABS,ioos:station:wmo:42047:1,2003-03-14T07:09:00Z,27.8966,-93.5973,23.4,11144222 
TABS,ioos:station:wmo:42047:1,2003-03-14T09:39:00Z,27.8966,-93.5973,23.2,11144222 
TABS,ioos:station:wmo:42047:1,2003-03-14T10:39:00Z,27.8966,-93.5973,23.2,11144222 
TABS,ioos:station:wmo:42047:1,2003-03-14T11:39:00Z,27.8966,-93.5973,23.1,11144222 
TABS,ioos:station:wmo:42047:1,2003-03-14T12:39:00Z,27.8966,-93.5973,22.6,11144222 
TABS,ioos:station:wmo:42047:1,2003-03-14T13:09:00Z,27.8966,-93.5973,22.5,11144222 
TABS,ioos:station:wmo:42047:1,2003-03-14T14:39:00Z,27.8966,-93.5973,22.3,11144222 
TABS,ioos:station:wmo:42047:1,2003-03-14T20:39:00Z,27.8966,-93.5973,22.5,11144222 
TABS,ioos:station:wmo:42047:1,2003-03-15T01:09:00Z,27.8966,-93.5973,22.1,11144222 
TABS,ioos:station:wmo:42047:1,2003-03-15T03:09:00Z,27.8966,-93.5973,22.5,11144222 
TABS,ioos:station:wmo:42047:1,2003-03-15T03:39:00Z,27.8966,-93.5973,22.5,11144222 
TABS,ioos:station:wmo:42047:1,2003-03-15T04:39:00Z,27.8966,-93.5973,22.5,11144222 
TABS,ioos:station:wmo:42047:1,2003-03-15T05:09:00Z,27.8966,-93.5973,22.6,11144222 
TABS,ioos:station:wmo:42047:1,2003-03-15T06:09:00Z,27.8966,-93.5973,22.8,11144222 
TABS,ioos:station:wmo:42047:1,2003-03-15T07:09:00Z,27.8966,-93.5973,22.8,11144222 
TABS,ioos:station:wmo:42047:1,2003-03-15T08:09:00Z,27.8966,-93.5973,22.7,11144222 
TABS,ioos:station:wmo:42047:1,2003-03-15T08:39:00Z,27.8966,-93.5973,22.8,11144222 
TABS,ioos:station:wmo:42047:1,2003-03-15T09:09:00Z,27.8966,-93.5973,22.8,11144222 
TABS,ioos:station:wmo:42047:1,2003-03-15T10:09:00Z,27.8966,-93.5973,23.1,11144222 
TABS,ioos:station:wmo:42047:1,2003-03-15T10:39:00Z,27.8966,-93.5973,23.2,11144222 
TABS,ioos:station:wmo:42047:1,2003-03-15T11:09:00Z,27.8966,-93.5973,23.2,11144222 
TABS,ioos:station:wmo:42047:1,2003-03-15T11:39:00Z,27.8966,-93.5973,23.3,11144222 
TABS,ioos:station:wmo:42047:1,2003-03-15T12:39:00Z,27.8966,-93.5973,23.4,11144222 
TABS,ioos:station:wmo:42047:1,2003-03-15T13:09:00Z,27.8966,-93.5973,23.5,11144222 
TABS,ioos:station:wmo:42047:1,2003-03-15T13:39:00Z,27.8966,-93.5973,23.5,11144222 
TABS,ioos:station:wmo:42047:1,2003-03-15T16:39:00Z,27.8966,-93.5973,24.0,11144222 
TABS,ioos:station:wmo:42047:1,2003-03-15T17:09:00Z,27.8966,-93.5973,23.9,11144222 
TABS,ioos:station:wmo:42047:1,2003-03-15T17:39:00Z,27.8966,-93.5973,23.8,11144222 
TABS,ioos:station:wmo:42047:1,2003-03-15T20:39:00Z,27.8966,-93.5973,23.8,11144222 
TABS,ioos:station:wmo:42047:1,2003-03-15T21:09:00Z,27.8966,-93.5973,23.8,11144222 
TABS,ioos:station:wmo:42047:1,2003-03-15T21:39:00Z,27.8966,-93.5973,24.1,11144222 
TABS,ioos:station:wmo:42047:1,2003-03-15T22:39:00Z,27.8966,-93.5973,21.8,11144222 
TABS,ioos:station:wmo:42047:1,2003-03-15T23:09:00Z,27.8966,-93.5973,22.6,11144222 
TABS,ioos:station:wmo:42047:1,2003-03-16T05:09:00Z,27.8966,-93.5973,23.6,11144222 
TABS,ioos:station:wmo:42047:1,2003-03-16T06:09:00Z,27.8966,-93.5973,23.6,11144222 
TABS,ioos:station:wmo:42047:1,2003-03-16T06:39:00Z,27.8966,-93.5973,23.3,11144222 
TABS,ioos:station:wmo:42047:1,2003-03-16T07:39:00Z,27.8966,-93.5973,23.4,11144222 
TABS,ioos:station:wmo:42047:1,2003-03-16T09:09:00Z,27.8966,-93.5973,23.5,11144222 
TABS,ioos:station:wmo:42047:1,2003-03-16T11:39:00Z,27.8966,-93.5973,22.3,11144222 
TABS,ioos:station:wmo:42047:1,2003-03-16T12:39:00Z,27.8966,-93.5973,23.3,11144222 
TABS,ioos:station:wmo:42047:1,2003-03-16T16:39:00Z,27.8966,-93.5973,23.1,11144222 
TABS,ioos:station:wmo:42047:1,2003-03-16T19:39:00Z,27.8966,-93.5973,23.7,11144222 
TABS,ioos:station:wmo:42047:1,2003-03-16T22:09:00Z,27.8966,-93.5973,23.7,11144222 
TABS,ioos:station:wmo:42047:1,2003-03-16T22:39:00Z,27.8966,-93.5973,23.7,11144222 
TABS,ioos:station:wmo:42047:1,2003-03-16T23:39:00Z,27.8966,-93.5973,23.5,11144222 
TABS,ioos:station:wmo:42047:1,2003-03-17T01:09:00Z,27.8966,-93.5973,22.4,11144222 
TABS,ioos:station:wmo:42047:1,2003-03-17T02:39:00Z,27.8966,-93.5973,22.5,11144222 
TABS,ioos:station:wmo:42047:1,2003-03-17T03:39:00Z,27.8966,-93.5973,22.6,11144222 
TABS,ioos:station:wmo:42047:1,2003-03-17T04:09:00Z,27.8966,-93.5973,21.9,11144222 
TABS,ioos:station:wmo:42047:1,2003-03-17T04:39:00Z,27.8966,-93.5973,21.9,11144222 
TABS,ioos:station:wmo:42047:1,2003-03-17T05:09:00Z,27.8966,-93.5973,21.7,11144222 
TABS,ioos:station:wmo:42047:1,2003-03-17T05:39:00Z,27.8966,-93.5973,21.7,11144222 
TABS,ioos:station:wmo:42047:1,2003-03-17T06:09:00Z,27.8966,-93.5973,21.6,11144222 
TABS,ioos:station:wmo:42047:1,2003-03-17T08:39:00Z,27.8966,-93.5973,21.7,11144222 
TABS,ioos:station:wmo:42047:1,2003-03-17T09:09:00Z,27.8966,-93.5973,21.5,11144222 
TABS,ioos:station:wmo:42047:1,2003-03-17T10:09:00Z,27.8966,-93.5973,21.8,11144222 
TABS,ioos:station:wmo:42047:1,2003-03-17T11:39:00Z,27.8966,-93.5973,22.1,11144222 
TABS,ioos:station:wmo:42047:1,2003-03-17T12:09:00Z,27.8966,-93.5973,22.4,11144222 
TABS,ioos:station:wmo:42047:1,2003-03-17T13:39:00Z,27.8966,-93.5973,22.9,11144222 
TABS,ioos:station:wmo:42047:1,2003-03-17T23:09:00Z,27.8966,-93.5973,22.8,11144222 
TABS,ioos:station:wmo:42047:1,2003-03-18T00:09:00Z,27.8966,-93.5973,23.0,11144222 
TABS,ioos:station:wmo:42047:1,2003-03-18T00:39:00Z,27.8966,-93.5973,23.2,11144222 
TABS,ioos:station:wmo:42047:1,2003-03-18T01:09:00Z,27.8966,-93.5973,23.3,11144222 
TABS,ioos:station:wmo:42047:1,2003-03-18T01:39:00Z,27.8966,-93.5973,23.4,11144222 
TABS,ioos:station:wmo:42047:1,2003-03-18T03:09:00Z,27.8966,-93.5973,23.6,11144222 
TABS,ioos:station:wmo:42047:1,2003-03-18T03:39:00Z,27.8966,-93.5973,23.7,11144222 
TABS,ioos:station:wmo:42047:1,2003-03-18T05:39:00Z,27.8966,-93.5973,24.2,11144222 
TABS,ioos:station:wmo:42047:1,2003-03-18T07:09:00Z,27.8966,-93.5973,24.4,11144222 
TABS,ioos:station:wmo:42047:1,2003-03-18T07:39:00Z,27.8966,-93.5973,24.4,11144222 
TABS,ioos:station:wmo:42047:1,2003-03-18T11:09:00Z,27.8966,-93.5973,24.7,11144222 
TABS,ioos:station:wmo:42047:1,2003-03-18T11:39:00Z,27.8966,-93.5973,24.7,11144222 
TABS,ioos:station:wmo:42047:1,2003-03-18T12:09:00Z,27.8966,-93.5973,24.8,11144222 
TABS,ioos:station:wmo:42047:1,2003-03-18T12:39:00Z,27.8966,-93.5973,24.8,11144222 
TABS,ioos:station:wmo:42047:1,2003-03-18T13:09:00Z,27.8966,-93.5973,24.9,11144222 
TABS,ioos:station:wmo:42047:1,2003-03-18T15:39:00Z,27.8966,-93.5973,25.4,11144222 
TABS,ioos:station:wmo:42047:1,2003-03-18T16:09:00Z,27.8966,-93.5973,25.5,11144222 
TABS,ioos:station:wmo:42047:1,2003-03-18T17:39:00Z,27.8966,-93.5973,25.7,11144222 
TABS,ioos:station:wmo:42047:1,2003-03-18T19:39:00Z,27.8966,-93.5973,25.6,11144222 
TABS,ioos:station:wmo:42047:1,2003-03-18T20:39:00Z,27.8966,-93.5973,25.7,11144222 